Location: *
(38.3914°N, 75.0697°W)
Time: 06:44:12
(UTC+00:00)

CAS-6 - Visible Passes

Search period start: 11 May 2021 00:00
Search period end: 21 May 2021 00:00
Orbit: 613 x 636 km, 97.9° (Epoch: 10 May)

Date Brightness Start Highest point End Pass type
(mag) Time Alt. Az. Time Alt. Az. Time Alt. Az.
11 May ? 02:59:23 38° NNE 02:59:23 38° NNE 03:02:21 10° N visible
12 May ? 03:18:14 43° N 03:18:14 43° N 03:21:10 10° N visible
13 May ? 01:59:50 12° ENE 01:59:55 12° ENE 02:01:28 10° NE visible
13 May ? 03:37:06 36° NW 03:37:06 36° NW 03:39:50 10° NNW visible
14 May ? 02:18:42 18° ENE 02:18:42 18° ENE 02:21:23 10° NNE visible
14 May ? 03:55:57 26° NW 03:55:57 26° NW 03:58:17 10° NNW visible
15 May ? 02:37:33 28° NE 02:37:33 28° NE 02:40:40 10° N visible
15 May ? 04:14:49 18° WNW 04:14:49 18° WNW 04:16:30 10° NW visible
16 May ? 02:56:25 40° NE 02:56:25 40° NE 02:59:42 10° N visible
16 May ? 04:33:40 11° WNW 04:33:40 11° WNW 04:34:09 10° WNW visible
17 May ? 03:15:16 50° N 03:15:16 50° N 03:18:32 10° N visible
18 May ? 01:56:52 11° ENE 01:57:19 11° ENE 01:58:30 10° NE visible
18 May ? 03:34:08 43° NW 03:34:08 43° NW 03:37:13 10° NNW visible
19 May ? 02:15:44 17° ENE 02:15:48 17° ENE 02:18:38 10° NNE visible
19 May ? 03:52:59 30° WNW 03:52:59 30° WNW 03:55:43 10° NNW visible
20 May ? 02:34:36 27° ENE 02:34:36 27° ENE 02:37:58 10° NNE visible
20 May ? 04:11:51 20° WNW 04:11:51 20° WNW 04:13:58 10° NW visible
